Weather Roundup
Issued by NWS Springfield, MO

Home | Current Version | Previous Version | Text Only | Print | Product List | Glossary On
Versions: 1 2 3 4 5 6 7 8 9 10 11 12 13 14 15 16 17 18 19 20 21 22 23 24 25 26 27 28 29 30 31 32 33 34 35 36 37 38 39 40 41 42 43 44 45 46 47 48 49 50
000
NZUS99 KSGF 150257
HRRSGF

HOURLY WEATHER
NATIONAL WEATHER SERVICE SPRINGFIELD MO
900 PM CST THU DEC 14 2017

......SGF CWA......

CITY           SKY/WX    TMP DP  RH WIND       PRES   REMARKS
SPRINGFIELD    CLOUDY    34  26  72 SW3       30.12R
JOPLIN         CLOUDY    32  26  78 S5        30.15R WCI  27
WEST PLAINS    CLOUDY    35  22  58 CALM      30.13R
ROLLA          CLOUDY    30  22  72 NE5       30.12S WCI  25
BRANSON        CLOUDY    36  23  60 NW6       30.14R WCI  31

......SURROUNDING SGF CWA......

CITY           SKY/WX    TMP DP  RH WIND       PRES   REMARKS
CHANUTE        CLOUDY    41  28  60 W6        30.13R
PARSONS        CLOUDY    38  29  70 CALM      30.15R
COFFEYVILLE    CLOUDY    39  28  64 S5        30.15R
EMPORIA        CLOUDY    41  29  62 NW7       30.13R
HARRISON AR    CLOUDY    36  25  64 NW3       30.13S

......KANSAS AND MISSOURI......

CITY           SKY/WX    TMP DP  RH WIND       PRES   REMARKS
KANSAS CTY INT CLOUDY    35  25  66 NE3       30.12R
SEDALIA        CLOUDY    33  27  78 CALM      30.14R
ST JOSEPH      CLOUDY    31  25  78 CALM      30.13R
ST LOUIS       CLOUDY    31  20  63 W5        30.13R WCI  26
WICHITA        CLOUDY    43  33  68 NW16G23   30.16R
TOPEKA         CLOUDY    41  33  73 NW8       30.14R
OLATHE         CLOUDY    35  27  72 SW3       30.11S

......TENNESSEE......

CITY           SKY/WX    TMP DP  RH WIND       PRES   REMARKS
MEMPHIS        NOT AVBL
NASHVILLE      CLOUDY    34  22  61 NW7       30.10R WCI  28

......ARKANSAS.......

CITY           SKY/WX    TMP DP  RH WIND       PRES   REMARKS
FAYETTEVILLE   CLEAR     28  23  81 CALM      30.15S
FT SMITH       PTCLDY    40  26  57 CALM      30.17S
LITTLE ROCK    CLEAR     38  26  62 N9        30.15R WCI  31

......OKLAHOMA.......

CITY           SKY/WX    TMP DP  RH WIND       PRES   REMARKS
TULSA          CLOUDY    43  27  53 S8        30.16S
PONCA CITY     CLOUDY    42  29  59 CALM      30.16R
MCALESTER      PTCLDY    30  25  81 CALM      30.17S
OKLAHOMA CITY  PTCLDY    34  25  69 SW6       30.17R WCI  29

......IOWA............

CITY           SKY/WX    TMP DP  RH WIND       PRES   REMARKS
DES MOINES     NOT AVBL
QUAD CITIES    CLOUDY    26  16  65 W10       30.08F WCI  16

......ILLINOIS........

CITY           SKY/WX    TMP DP  RH WIND       PRES   REMARKS
QUINCY         CLOUDY    28  19  69 SW3       30.11S
CHICAGO        MOCLDY    21  11  65 W3        30.06S



USA.gov is the U.S. government's official web portal to all federal, state and local government web resources and services.